Regional Weather Roundup
Issued by NWS

Home | Current Version | Previous Version | Graphics & Text | Print | Product List | Glossary On
Versions: 1 2 3 4 5 6 7 8 9 10 11 12 13 14 15 16 17 18 19 20 21 22 23 24 25 26 27
000
ASUS45 KCYS 280610
RWRWY

WYOMING REGIONAL WEATHER ROUNDUP
NATIONAL WEATHER SERVICE CHEYENNE WY
1200 AM MDT WED JUN 28 2017

NOTE:  "FAIR" INDICATES FEW OR NO CLOUDS BELOW 12,000 FEET
WITH NO SIGNIFICANT WEATHER AND/OR OBSTRUCTIONS TO VISIBILITY.

WYZ001-280700-
YELLOWSTONE NATIONAL PARK

CITY           SKY/WX    TMP DP  RH WIND       PRES   REMARKS
LK YELLOWSTONE   N/A     43  43 100 NW3       30.15S
6HR MIN TEMP:  42; 6HR MAX TEMP:  52; 6HR PCP:  0.08;

W YELLOWSTONE  NOT AVBL

$$
WYZ002>013-054>058-071-098>099-280700-
NORTHERN WYOMING

CITY           SKY/WX    TMP DP  RH WIND       PRES   REMARKS
JACKSON        FAIR      52  46  82 N16G22    30.05F
CODY           CLOUDY    65  40  39 W12G20    29.93S
GREYBULL       FAIR      61  46  57 SW5       29.87R
6HR MIN TEMP:  59; 6HR MAX TEMP:  76;

WORLAND        FAIR      53  44  71 SE6       29.89R
6HR MIN TEMP:  53; 6HR MAX TEMP:  73;

SHERIDAN       FAIR      53  49  86 S9        29.87F
6HR MIN TEMP:  53; 6HR MAX TEMP:  74;

BUFFALO        FAIR      57  47  69 W7        29.93S
6HR MIN TEMP:  55; 6HR MAX TEMP:  65;

GILLETTE       FAIR      55  53  93 W7        29.87S
6HR MIN TEMP:  55; 6HR MAX TEMP:  67; 6HR PCP: TRACE;

NEWCASTLE      FAIR      55  46  71 W10       29.84F

$$
WYZ014>020-022>026-101>103-280700-
CENTRAL WYOMING

CITY           SKY/WX    TMP DP  RH WIND       PRES   REMARKS
BIG PINEY      FAIR      48  38  68 E9        30.08S
6HR MIN TEMP:  44; 6HR MAX TEMP:  74;

PINEDALE       FAIR      45  43  93 NW6       30.08F
DUBOIS         FAIR      45  37  76 W7        30.07F
LANDER         FAIR      54  42  64 NW5       30.00S
6HR MIN TEMP:  54; 6HR MAX TEMP:  73;

RIVERTON       FAIR      57  39  51 W6        29.98S
6HR MIN TEMP:  55; 6HR MAX TEMP:  71;

CASPER         FAIR      50  41  71 W7        29.97F
6HR MIN TEMP:  50; 6HR MAX TEMP:  73;

DOUGLAS        FAIR      58  42  55 NW12      29.93S
6HR MIN TEMP:  54; 6HR MAX TEMP:  74;


$$
WYZ021-027>030-104>119-280700-
SOUTHERN WYOMING

CITY           SKY/WX    TMP DP  RH WIND       PRES   REMARKS
EVANSTON       FAIR      57  32  38 E6        30.09S
6HR MIN TEMP:  56; 6HR MAX TEMP:  75;

KEMMERER         N/A     54  34  47 CALM      30.10S
FORT BRIDGER   FAIR      62  31  31 W5        30.12S
ROCK SPRINGS   FAIR      59  33  37 E6        30.06S
6HR MIN TEMP:  59; 6HR MAX TEMP:  79;

DIXON          FAIR      55  42  61 CALM      30.07S
RAWLINS        FAIR      50  41  71 N9        30.06F
6HR MIN TEMP:  48; 6HR MAX TEMP:  69;

SARATOGA       FAIR      48  48 100 E9        30.09S
LARAMIE        FAIR      50  41  71 SW7       30.07R
6HR MIN TEMP:  50; 6HR MAX TEMP:  67; 6HR PCP: TRACE;

CHEYENNE       FAIR      60  40  47 NW5       30.01R
6HR MIN TEMP:  60; 6HR MAX TEMP:  82;

TORRINGTON     FAIR      62  46  55 NW7       29.84S
6HR MIN TEMP:  60; 6HR MAX TEMP:  87;

PINE BLUFFS    FAIR      63  41  45 NW15      29.92R

$$




USA.gov is the U.S. government's official web portal to all federal, state and local government web resources and services.